Wind_Speed
34 35 35 36 36 36 37 37 38 38 38 39 38 38 38 38 37 37 37 37 36 36 37 37 36 36 36 36 36 35 35 35 34 34 34 33 32 32 31 30 30 30 30
36 37 37 37 38 38 39 39 39 40 40 41 41 41 41 41 40 40 39 39 39 39 39 39 39 39 39 38 38 38 37 37 37 37 37 36 35 35 34 33 33 32 32
38 38 38 38 39 39 40 41 42 42 42 43 43 43 43 43 43 42 42 42 42 42 42 42 42 41 42 41 41 41 40 40 40 40 40 39 38 38 37 37 36 35 35
39 40 40 41 41 41 42 43 43 43 44 44 44 45 45 45 45 44 44 43 43 44 44 44 44 44 44 44 44 43 43 43 43 42 42 42 42 41 40 39 39 38 38
41 42 42 43 43 43 44 44 44 45 45 45 45 46 46 47 47 47 46 46 46 46 46 47 47 47 47 47 47 47 46 46 45 45 45 45 44 44 43 43 42 41 41
43 43 43 44 44 44 44 45 45 46 47 47 46 47 47 48 49 49 49 49 49 48 48 48 49 49 50 50 50 50 50 49 49 48 48 47 47 47 46 46 45 45 44
44 44 44 45 45 45 45 46 46 47 48 49 48 49 49 49 50 51 52 51 51 51 51 52 52 52 53 53 53 53 53 53 52 51 51 50 49 49 49 48 48 48 47
45 45 46 46 46 46 46 47 47 48 49 50 50 50 50 51 51 51 52 54 54 54 54 54 54 55 55 55 55 56 56 55 55 55 54 53 53 52 51 51 50 50 50
46 46 47 47 47 47 48 48 49 49 50 51 51 52 52 52 52 52 53 54 56 56 56 56 56 57 57 58 58 58 58 58 58 58 57 56 56 55 54 54 53 53 53
48 47 47 48 48 48 49 50 50 50 51 52 53 53 54 55 55 54 55 55 56 57 57 58 58 58 58 59 60 59 60 59 59 60 59 59 58 58 58 57 57 56 56
48 48 47 48 49 49 49 50 51 52 52 53 54 55 56 56 57 57 57 57 57 57 57 58 59 59 60 61 61 61 61 61 60 61 61 61 61 61 61 60 60 60 59
50 49 49 49 49 49 50 51 52 53 54 54 55 56 56 57 57 58 59 59 58 58 58 59 60 60 61 61 62 62 62 63 63 62 62 63 63 63 63 63 63 62 62
50 50 50 50 50 50 51 52 52 53 54 55 56 56 57 57 58 59 59 59 59 59 60 60 61 61 62 62 62 62 63 63 64 64 64 64 64 64 64 64 64 65 64
51 51 51 51 52 52 52 53 53 53 54 55 56 56 57 57 58 59 59 60 60 60 60 60 61 61 62 62 62 63 64 64 65 65 65 65 65 66 66 65 65 65 66
52 52 52 52 52 52 53 53 54 54 55 55 55 55 56 57 58 58 59 60 61 61 60 60 61 61 62 62 62 63 64 64 65 65 65 65 65 65 66 66 66 66 66
51 51 51 51 51 52 53 53 54 54 54 54 53 54 56 56 57 58 58 58 58 59 59 59 60 60 61 62 62 62 63 64 64 64 65 66 65 65 66 67 67 67 67
51 51 52 52 52 52 53 53 53 54 54 53 53 54 55 56 57 57 58 58 58 59 59 58 59 60 60 61 61 61 61 62 62 63 64 65 65 65 65 66 67 67 67
50 51 51 52 52 52 52 52 52 52 52 53 53 54 55 56 56 56 56 57 58 59 59 58 58 58 59 59 59 60 60 60 61 61 63 64 65 66 66 66 66 67 68
50 50 50 50 50 50 49 50 51 51 51 52 52 53 54 54 55 55 55 55 56 56 58 58 57 56 56 56 57 57 58 58 60 60 62 63 64 65 66 67 66 66 66
48 48 48 49 49 48 48 49 50 50 50 50 51 51 52 53 54 54 54 54 55 55 55 55 56 55 55 55 56 56 56 56 57 58 60 61 62 63 65 66 66 67 67
46 47 48 48 48 48 49 48 47 48 48 48 48 49 50 50 51 52 52 52 52 53 53 53 53 54 55 55 55 55 55 55 55 56 57 58 59 61 62 63 65 66 67
45 46 46 47 48 48 48 47 47 48 47 47 48 48 48 48 49 49 50 50 50 51 51 52 52 52 52 53 53 53 54 54 54 55 56 56 57 58 59 61 63 64 65
45 45 45 46 45 46 46 46 46 47 47 47 47 47 47 46 46 47 48 48 48 49 49 50 50 49 49 50 51 51 52 52 52 53 55 55 56 57 57 58 60 61 62
43 43 44 44 44 44 45 45 46 46 45 45 45 45 45 45 44 44 44 45 46 47 48 49 48 48 48 48 49 49 50 51 52 53 54 54 55 55 56 57 58 58 60
42 42 42 42 43 43 43 43 43 43 42 43 43 43 43 43 43 43 43 44 44 45 45 45 46 46 47 47 48 48 49 50 50 50 52 52 52 53 54 55 56 56 57
41 41 41 42 42 42 41 40 40 41 41 40 41 41 41 42 42 42 43 42 42 42 43 43 44 44 45 46 47 48 48 48 47 47 49 50 50 51 51 52 53 54 55
Wind_Direction
265 264 263 261 261 260 259 257 257 257 257 257 256 256 257 257 257 257 256 256 257 257 256 256 256 257 256 256 255 254 255 255 255 255 254 253 253 253 253 254 254 251 250
267 266 265 263 262 261 260 259 258 258 257 257 257 257 257 257 257 257 257 257 257 257 257 257 257 258 257 256 256 255 254 256 256 256 255 255 254 254 254 254 254 252 251
268 266 265 265 264 263 262 260 260 260 259 258 258 258 258 258 257 258 257 257 258 258 258 257 257 258 258 257 256 256 255 256 256 256 256 255 254 254 254 253 253 252 251
268 267 267 266 265 264 263 261 260 260 259 258 258 259 258 258 258 258 258 258 258 258 259 258 258 258 258 258 257 257 257 256 256 256 256 255 255 254 253 253 252 251 251
269 269 268 267 266 265 264 262 261 260 260 259 259 259 259 258 258 259 259 258 258 258 258 258 259 258 258 259 259 258 258 256 256 256 256 256 255 254 254 253 252 251 250
270 270 270 268 267 266 265 263 262 261 260 259 261 260 260 259 259 259 259 258 258 258 258 259 259 259 259 259 259 259 258 257 256 256 256 256 255 255 254 253 252 252 251
269 269 270 270 269 267 265 264 263 262 260 260 261 261 261 260 261 261 260 259 259 259 260 260 260 260 260 260 259 259 258 257 256 256 255 256 255 255 254 253 252 252 252
269 269 269 269 269 268 265 264 264 263 262 262 262 261 261 261 261 260 261 261 260 261 261 262 262 261 261 261 260 259 258 258 257 256 255 255 255 254 254 253 252 252 253
269 270 269 269 269 268 266 265 265 265 263 263 263 262 262 261 260 260 261 261 262 262 262 263 263 263 262 262 261 260 258 258 257 256 255 254 254 254 254 253 253 252 253
268 270 269 269 268 268 267 266 266 266 265 264 263 263 263 262 261 260 261 262 262 262 263 263 264 263 263 262 261 260 259 258 257 256 255 254 253 254 254 254 253 253 253
269 270 270 269 269 269 268 268 268 267 267 266 265 265 264 264 263 262 262 262 262 262 263 263 264 263 263 263 262 261 259 257 257 257 256 254 254 254 254 254 254 254 253
270 271 272 272 271 271 270 269 270 269 268 267 267 266 266 265 264 263 263 263 263 263 263 264 264 264 263 263 262 261 259 258 257 256 256 255 254 254 254 254 254 254 253
272 272 273 273 272 272 271 271 271 271 270 268 268 268 267 266 265 264 264 264 264 264 264 264 264 263 263 262 262 261 260 259 257 257 256 255 254 254 253 253 253 253 253
272 273 273 274 273 273 272 271 272 272 271 270 269 268 266 266 265 265 265 264 264 265 264 264 265 264 264 263 262 261 260 259 259 258 257 256 255 254 253 253 253 253 252
271 272 273 273 273 273 273 272 272 272 272 271 270 267 266 267 266 265 265 265 265 265 264 264 264 264 264 263 262 261 260 260 259 258 258 256 255 254 253 253 252 252 252
272 273 274 274 274 274 274 274 273 273 273 272 270 268 267 266 266 265 265 265 265 265 265 264 264 264 264 264 263 263 262 261 260 259 258 257 256 255 254 253 252 252 252
273 274 274 274 275 275 276 275 274 274 274 272 271 270 268 267 266 265 265 266 266 266 266 265 265 265 264 264 263 263 263 261 261 260 258 258 257 255 255 254 253 252 252
274 275 275 275 275 276 276 276 276 275 274 273 272 270 269 268 266 266 267 267 267 266 266 266 265 265 264 263 263 263 262 261 261 260 259 258 257 256 255 254 253 253 253
274 275 274 275 275 275 276 276 276 277 275 273 273 271 270 268 268 268 268 268 267 267 266 265 264 264 264 263 263 263 263 262 261 260 259 258 258 257 255 254 254 254 254
275 275 274 274 274 274 276 278 278 277 275 274 272 271 270 270 269 269 269 269 268 267 267 266 265 264 264 264 264 263 263 262 261 260 260 259 258 257 256 255 255 254 254
275 275 275 275 275 276 277 278 278 277 276 274 273 272 271 271 270 270 269 269 268 267 266 266 266 265 265 265 264 264 263 262 261 261 260 260 259 258 258 257 256 255 254
276 276 276 276 276 276 277 277 278 278 277 276 274 273 272 272 270 269 269 268 268 268 267 266 266 266 266 265 264 264 263 263 262 261 261 259 259 258 258 258 257 256 255
276 277 277 277 276 277 277 277 278 278 278 277 276 274 273 272 271 270 269 269 269 268 267 266 266 266 266 265 265 265 264 264 264 262 261 260 259 259 258 258 257 257 256
277 278 278 277 277 278 278 278 278 278 278 277 276 275 274 272 271 270 269 269 268 268 266 265 266 266 266 267 267 267 266 266 265 264 263 261 260 259 258 259 259 258 256
277 278 278 278 278 279 280 280 279 278 277 277 276 275 274 273 272 272 271 270 269 268 267 267 267 268 268 268 269 268 268 267 266 265 265 263 261 260 259 259 259 259 257
277 278 278 278 278 278 279 280 280 279 278 277 277 276 275 274 274 273 272 271 271 270 269 268 269 269 269 270 270 270 269 268 267 266 264 264 262 261 260 259 259 259 258
Height
5761 5761 5761 5761 5761 5761 5762 5763 5764 5765 5766 5767 5769 5770 5771 5772 5773 5774 5776 5777 5778 5780 5781 5782 5783 5784 5785 5786 5788 5789 5790 5792 5793 5794 5796 5797 5798 5799 5800 5802 5803 5804 5805
5752 5752 5752 5752 5752 5752 5753 5753 5754 5755 5756 5758 5759 5760 5761 5762 5764 5765 5767 5768 5770 5771 5772 5773 5774 5776 5777 5778 5779 5780 5782 5784 5785 5786 5788 5789 5790 5792 5793 5794 5796 5797 5798
5742 5742 5742 5742 5742 5742 5743 5743 5744 5745 5746 5747 5749 5750 5751 5752 5754 5755 5757 5758 5760 5761 5762 5764 5765 5766 5767 5769 5770 5771 5773 5775 5776 5777 5779 5780 5782 5783 5785 5786 5788 5789 5791
5732 5732 5731 5731 5731 5731 5731 5732 5733 5734 5735 5736 5737 5739 5740 5742 5743 5745 5746 5748 5749 5751 5752 5753 5754 5755 5757 5758 5760 5761 5763 5764 5766 5768 5769 5771 5772 5774 5776 5777 5779 5781 5782
5721 5721 5721 5720 5720 5720 5720 5720 5721 5722 5723 5724 5725 5727 5728 5729 5731 5733 5735 5736 5738 5739 5741 5742 5743 5744 5746 5747 5748 5750 5752 5753 5755 5757 5759 5760 5762 5764 5766 5767 5769 5771 5773
5710 5710 5709 5709 5708 5708 5707 5708 5708 5709 5711 5712 5713 5714 5715 5717 5719 5720 5722 5724 5725 5727 5728 5730 5732 5733 5734 5735 5736 5738 5740 5741 5743 5745 5747 5749 5751 5753 5755 5757 5759 5761 5763
5699 5698 5697 5696 5696 5696 5696 5696 5696 5697 5698 5699 5700 5702 5703 5704 5705 5707 5709 5710 5712 5713 5715 5717 5718 5719 5721 5722 5723 5725 5727 5728 5730 5732 5735 5737 5739 5741 5743 5745 5747 5750 5752
5687 5686 5685 5684 5684 5683 5683 5684 5684 5684 5685 5686 5687 5688 5690 5692 5693 5694 5695 5697 5698 5699 5701 5702 5703 5705 5706 5707 5709 5710 5712 5714 5716 5718 5721 5723 5726 5728 5731 5733 5735 5738 5740
5674 5673 5673 5672 5671 5671 5671 5671 5671 5671 5672 5672 5673 5674 5675 5677 5679 5681 5681 5682 5683 5684 5685 5687 5688 5689 5690 5691 5693 5695 5697 5699 5701 5703 5706 5708 5711 5714 5717 5719 5722 5725 5727
5662 5661 5660 5659 5658 5658 5657 5657 5657 5657 5658 5658 5659 5659 5660 5661 5663 5666 5667 5667 5667 5668 5669 5670 5671 5672 5673 5674 5676 5678 5680 5682 5684 5687 5689 5692 5695 5698 5701 5705 5708 5710 5713
5649 5648 5647 5646 5645 5645 5644 5644 5643 5643 5643 5644 5644 5645 5645 5646 5647 5649 5651 5652 5652 5652 5653 5654 5654 5655 5656 5657 5659 5660 5662 5665 5667 5669 5672 5675 5678 5682 5685 5688 5692 5695 5698
5636 5635 5634 5633 5632 5631 5630 5630 5630 5629 5629 5629 5629 5629 5630 5630 5631 5632 5634 5635 5636 5636 5636 5637 5637 5638 5638 5639 5641 5643 5644 5647 5649 5652 5654 5657 5661 5664 5668 5671 5675 5678 5682
5622 5621 5620 5619 5618 5617 5617 5616 5615 5615 5615 5614 5614 5614 5614 5615 5615 5616 5617 5618 5619 5620 5619 5619 5619 5620 5620 5621 5623 5624 5626 5628 5631 5633 5636 5639 5643 5646 5650 5653 5657 5661 5665
5609 5608 5607 5606 5604 5603 5602 5602 5601 5600 5600 5599 5599 5599 5599 5599 5599 5600 5600 5601 5602 5603 5603 5602 5602 5602 5602 5603 5605 5606 5608 5610 5612 5615 5618 5621 5624 5628 5632 5635 5639 5643 5647
5596 5595 5594 5592 5591 5589 5588 5587 5586 5586 5585 5584 5583 5583 5583 5583 5583 5583 5584 5584 5585 5586 5587 5586 5585 5585 5584 5585 5586 5587 5589 5591 5593 5596 5599 5602 5605 5609 5613 5617 5620 5624 5628
5582 5581 5580 5578 5577 5576 5574 5573 5571 5570 5569 5568 5567 5567 5566 5567 5566 5566 5567 5567 5567 5567 5569 5570 5568 5568 5567 5568 5568 5569 5571 5573 5575 5578 5580 5583 5587 5590 5593 5597 5601 5605 5609
5568 5567 5566 5564 5563 5561 5560 5558 5557 5555 5554 5553 5552 5552 5551 5550 5550 5550 5550 5550 5550 5550 5551 5552 5551 5551 5551 5551 5551 5552 5553 5555 5557 5559 5562 5565 5568 5571 5574 5578 5582 5586 5590
5554 5553 5551 5550 5549 5547 5545 5543 5542 5541 5539 5538 5537 5536 5535 5534 5534 5534 5534 5534 5533 5533 5533 5534 5535 5534 5534 5534 5535 5535 5536 5537 5539 5541 5543 5546 5549 5552 5556 5559 5563 5567 5571
5540 5539 5537 5536 5534 5533 5531 5529 5528 5526 5525 5523 5522 5521 5520 5519 5519 5518 5518 5517 5517 5517 5516 5517 5518 5518 5518 5518 5518 5519 5519 5520 5522 5523 5525 5528 5531 5534 5537 5540 5544 5547 5552
5526 5525 5523 5522 5520 5519 5517 5515 5513 5512 5510 5508 5507 5506 5505 5504 5504 5503 5502 5502 5501 5501 5500 5501 5502 5502 5502 5502 5502 5503 5503 5504 5505 5506 5507 5510 5512 5515 5518 5522 5527 5530 5533
5513 5511 5510 5508 5507 5505 5503 5501 5500 5498 5496 5494 5493 5492 5491 5490 5488 5488 5487 5487 5486 5485 5485 5486 5486 5486 5486 5486 5486 5486 5487 5488 5489 5490 5491 5493 5496 5498 5500 5503 5506 5509 5513
5500 5498 5496 5495 5493 5491 5489 5487 5486 5484 5482 5480 5479 5477 5476 5475 5474 5473 5472 5471 5471 5471 5470 5471 5471 5471 5471 5471 5471 5471 5471 5472 5474 5476 5475 5477 5478 5480 5482 5485 5487 5490 5494
5486 5485 5483 5481 5480 5478 5476 5474 5472 5470 5468 5466 5464 5463 5462 5461 5459 5459 5458 5457 5457 5456 5456 5456 5456 5456 5456 5457 5457 5457 5456 5456 5457 5457 5457 5460 5461 5463 5465 5467 5469 5471 5474
5474 5472 5470 5468 5467 5465 5462 5460 5458 5456 5454 5452 5451 5449 5448 5447 5446 5445 5444 5443 5443 5442 5442 5442 5443 5443 5442 5441 5441 5441 5441 5441 5441 5441 5441 5443 5445 5446 5448 5450 5451 5453 5456
5461 5459 5458 5456 5454 5452 5449 5447 5444 5443 5441 5439 5438 5436 5435 5434 5433 5431 5431 5430 5430 5429 5428 5428 5428 5428 5427 5427 5426 5426 5426 5426 5426 5427 5426 5427 5429 5430 5432 5434 5435 5436 5438
5449 5447 5445 5443 5441 5439 5437 5434 5432 5431 5429 5427 5425 5424 5422 5421 5419 5418 5417 5417 5417 5416 5415 5415 5414 5414 5413 5413 5412 5411 5411 5411 5411 5412 5412 5411 5413 5413 5416 5419 5419 5420 5421